Погода в Камышевахе

Россия / Ростовская область     47°18′09″N   39°48′41″E
темп.,
°C
ветер,
м/с
пор.,
м/с
влажн.,
%
обл.,
%
осадки,
мм/ч
давл.,
гПа
погр.,
м
17 мая, пн
пн1700:00+20в6164533 0.0 1005539
03:00+18в5135098 0.0 1005426
06:00+17в511535 0.0 1005341
09:00+22юв344812 0.0 1006534
12:00+26ю2245100 0.0 10061121
15:00+26зюз4346100 0.0 10071181
18:00+22зсз456399 0.0 1007402
21:00+19зюз4784100 0.4 1009256
18 мая, вт
вт1800:00+17з51088100 0.3 1009392
03:00+15з41093100 1.1 1008420
06:00+15юз3597100 5.1 1010245
09:00+18зюз5783100 6.1 1009706
12:00+22зюз565629 0.1 10101506
15:00+20зюз476293 0.1 10101018
18:00+20з356012 0.0 1010914
21:00+17з01735 0.0 101015
19 мая, ср
ср1900:00+16вюв117823 0.0 100924
03:00+15ююв238362 0.0 1009109
06:00+15ююз2482100 0.0 1009155
09:00+14юз4796100 3.0 1010370
12:00+15ю4889100 4.2 1011772
15:00+18юз4772100 5.8 10101209
18:00+17зюз48775 1.1 10111000
21:00+14юз5128598 1.3 1012913
20 мая, чт
чт2000:00+13ююз6138897 0.1 1012860
03:00+13юз6129098 0.3 1012985
06:00+13ююз5129385 0.4 1013630
09:00+17юз797247 0.7 10131136
12:00+20зюз685544 0.1 10141639
15:00+21з45510 0.1 10141282
18:00+20зюз1254100 0.0 1014725
21:00+18в256718 0.0 1014126
21 мая, пт
пт2100:00+15в36797 0.0 1013137
03:00+14в398243 0.0 1013224
06:00+15всв5117594 0.0 1013322
09:00+20в61159100 0.0 1012507
12:00+24вюв6847100 0.0 1012807
15:00+26вюв67475 0.0 10111145
18:00+25в485776 0.0 1010862
21:00+21всв412695 0.0 1010329